Regional Weather Roundup
Issued by NWS Charleston, SC

Current Version | Previous Version | Text Only | Print | Product List | Glossary Off
Versions: 1 2 3 4 5 6 7 8 9 10 11 12 13 14 15 16 17 18 19 20 21 22 23 24 25 26 27 28 29 30 31 32 33 34 35 36 37 38 39 40 41 42 43 44 45 46 47 48 49 50

000
ASUS42 KCHS 200012
RWRCHS

Regional Weather Roundup
National Weather Service Charleston SC
700 PM EST FRI JAN 19 2018

NOTE: "fair" indicates few or no clouds below 12,000 feet with no
significant weather and/or obstructions to visibility.

Not all stations are quality controlled. Use data with caution,
especially dewpoint observations.

SCZ027-030-031-034>040-042>050-200100-
...Southeast South Carolina...

CITY           SKY/WX    TMP DP  RH WIND       PRES   REMARKS
N Charleston   FAIR      44  28  53 SW8       30.23R
6HR MIN TEMP:  44; 6HR MAX TEMP:  62;

Waterfront Prk NOT AVBL
Mount Pleasant FAIR      46  32  57 S5        30.23R
Johns Island   FAIR      46  32  57 SW5       30.24R
Pinopolis        N/A     54  19  26 VRB3      30.13R
Moncks Corner  FAIR      41  23  48 CALM      30.21R
Summerville    FAIR      43  23  45 CALM      30.23R
Beaufort MCAS  FAIR      44  39  82 CALM      30.24R
6HR MIN TEMP:  44; 6HR MAX TEMP:  62;

Beaufort Arpt  FAIR      43  36  75 S6        30.24R
Hilton Head Is CLEAR     46  34  61 S8        30.25R
Walterboro     FAIR      43  23  45 CALM      30.23R
Allendale      FAIR      45  18  33 CALM      30.21S

...Southern Midlands and Pee Dee...

CITY           SKY/WX    TMP DP  RH WIND       PRES   REMARKS
Georgetown     FAIR      43  32  65 SW5       30.21R
Kingstree      FAIR      39  23  52 CALM      30.19R
Orangeburg     FAIR      45  19  35 S5        30.20R
6HR MIN TEMP:  44; 6HR MAX TEMP:  60;

Barnwell         N/A     48  18  29 SW5       30.21S
Aiken          FAIR      45  14  29 CALM      30.23R
Manning        FAIR      43  21  42 MISG      30.20R
Columbia       FAIR      42  30  62 W3        30.19R
6HR MIN TEMP:  42; 6HR MAX TEMP:  61;

Sumter         FAIR      43  24  46 CALM      30.17R
6HR MIN TEMP:  43; 6HR MAX TEMP:  60;

Florence       FAIR      44  22  41 CALM      30.18R
6HR MIN TEMP:  44; 6HR MAX TEMP:  59;

Myrtle Beach   FAIR      45  38  76 S9        30.20S
N Myrtle Beach FAIR      44  38  79 SW10      30.19R
6HR MIN TEMP:  41; 6HR MAX TEMP:  51;


$$

GAZ063-065-086>088-099>101-113>116-118-119-134>141-150-200100-
...Southeast Georgia...

CITY           SKY/WX    TMP DP  RH WIND       PRES   REMARKS
Savannah Arpt  FAIR      50  19  29 S6        30.25R
6HR MIN TEMP:  49; 6HR MAX TEMP:  62;

Hunter AAF     FAIR      46  33  59 S7        30.22S
6HR MIN TEMP:  45; 6HR MAX TEMP:  61;

Fort Stewart   FAIR      44  24  44 CALM      30.23S
6HR MIN TEMP:  44; 6HR MAX TEMP:  60;

Statesboro     FAIR      40  19  43 CALM      30.23S
Sylvania       FAIR      46  23  39 CALM      30.24R
Claxton        FAIR      41  27  58 CALM      30.24F

...CSRA, Central and far Southeast Georgia...

CITY           SKY/WX    TMP DP  RH WIND       PRES   REMARKS
Thomson        FAIR      39  17  40 W6        30.25S WCI  35
Augusta-Bush   FAIR      41  18  39 SW7       30.20S
6HR MIN TEMP:  41; 6HR MAX TEMP:  62;

Augusta-Daniel FAIR      52  10  18 CALM      30.20S
Swainsboro     FAIR      39  27  60 CALM      30.24S
Vidalia        FAIR      45  21  39 CALM      30.24S
Eastman        FAIR      46   7  20 CALM      30.27R
Hazlehurst     FAIR      44  11  26 CALM      30.24R
Alma           FAIR      41  29  62 CALM      30.25S
6HR MIN TEMP:  41; 6HR MAX TEMP:  60;

Waycross       FAIR      42  23  47 CALM      30.26R
Jesup          FAIR      45  25  45 CALM      30.25S
Baxley         FAIR      41  27  56 CALM      30.24F
Brunswick      FAIR      45  30  57 CALM      30.26S
Saint Simons   FAIR      47  36  65 CALM      30.26S
6HR MIN TEMP:  46; 6HR MAX TEMP:  58;


$$

SCZ027-028-034-036>038-045-046-048>050-GAZ119-141-200100-
...Lake and Supplemental Coastal Observations...

STATION/POSITION TIME  TEMP    WIND        PRES    WAVE   SWELL
                       AIR SEA DIR/SP/G            HT/PER HT/PER/DIR
                 (UTC) (F)     (DEG/KT/KT) (MB)    (FT/S) (FT/S/D)
Winyah Bay       NOT AVBL
Lake Murray      2320   49     260/  1/  2 1021.3
ACE Basin NERRS  2245   48        CALM     1023.0
Fort Pulaski     2336   45 46  210/  5/  7 1024.5R
Sapelo Island    2300   48     150/  5     1024.0

$$

ANZ835-935-AMZ111-154-330-350-352-354-370-450-454-472-200100-
...C-MAN and Buoy Observations...

STATION/POSITION TIME  TEMP    WIND        PRES    WAVE   SWELL
                       AIR SEA DIR/SP/G            HT/PER HT/PER/DIR
                 (UTC) (F)     (DEG/KT/KT) (MB)    (FT/S) (FT/S/D)
Buoy 41004       2350   58 69  230/ 16/ 19 1023.1S   4/ 5   2/100/11
Buoy 41008       2350   51 51  190/  8/  8 1024.4F   2/11   2/ 80/11
Folly Beach CMAN 2300   48     220/  8/ 10 1023.7F
Capers Nearshore 2308   46 49  230/ 14/ 17 1023.0R
Fripp Nearshore  2308   44 45  210/ 10/ 14 1022.4F


STATION/POSITION TIME  TEMP    WIND        PRES    WAVE   SWELL
                       AIR SEA DIR/SP/G            HT/PER HT/PER/DIR
                 (UTC) (F)     (DEG/KT/KT) (MB)    (FT/S) (FT/S/D)
5E St. Marys GA  2330      49                N/A     2/11   2/ 90/11
Frying Pan Buoy  2350   58 62  240/ 17/ 19 1022.1S   4/11   2/ 80/11
Buoy 41025       2350   58 70  250/ 16/ 19 1020.9R   4/10   3/ 50/10
Cape Lookout NC  2300          220/  9/ 12 1021.3F
Buoy 41002       2350   62 70  280/  8/ 10 1024.0R   6/11   7/ 40/11
Buoy 41010       NOT AVBL
St Augustine FL  0000   50 50  150/  4/  4 1025.3R


$$




USA.gov is the U.S. government's official web portal to all federal, state and local government web resources and services.